Location: Dallas
(32.7833°N, 96.8000°W)
Time: 09:27:18
(UTC-05:00)

Tiangong - Visible Passes

Search period start: 05 October 2022 00:00
Search period end: 15 October 2022 00:00
Orbit: 383 x 386 km, 41.5° (Epoch: 05 October)

Date Brightness Start Highest point End Pass type
(mag) Time Alt. Az. Time Alt. Az. Time Alt. Az.
05 Oct -0.1 19:41:55 10° S 19:43:43 14° SE 19:45:12 11° ESE visible
05 Oct 1.1 21:17:08 10° WSW 21:17:26 12° WSW 21:17:26 12° WSW visible
06 Oct -2.1 20:17:20 10° SW 20:20:26 59° SSE 20:20:53 51° ESE visible
07 Oct -0.2 20:54:25 10° W 20:56:24 29° WNW 20:56:24 29° WNW visible
08 Oct -1.9 19:54:16 10° WSW 19:57:24 68° NNW 19:59:32 18° NE visible
09 Oct -0.4 20:31:42 10° WNW 20:34:24 25° NNW 20:34:44 25° N visible
10 Oct -1.0 19:31:17 10° W 19:34:16 38° NNW 19:37:15 10° NE visible
10 Oct 1.1 21:09:25 10° NW 21:09:49 12° NW 21:09:49 12° NW visible
11 Oct 0.0 20:08:53 10° WNW 20:11:19 20° N 20:12:36 16° NNE visible
12 Oct 0.6 20:46:22 10° NW 20:47:30 15° NNW 20:47:30 15° NNW visible
13 Oct 0.1 19:45:53 10° NW 19:48:04 17° N 19:50:09 10° NE visible
14 Oct 0.0 20:22:55 10° NW 20:24:56 17° N 20:24:56 17° N visible
